[[{"header":{"parameterUnit":"m.s-1","parameterCategory":1,"la1":30.2991,"la2":30.254,"lo1":-89.0895,"lo2":-89.0444,"dy":0.0017,"dx":0.0017,"nx":28,"ny":28,"refTime":"2023-07-21T09:00:00:Z","depth":0,"parameterNumber":2,"parameterNumberName":"U-component_of_WINDS"},"data":[0,0,0,0,0,0,0,0,0,0,0,0,0,0,0,0,0,0,0,0,0,0,0,0,0,0,0,0,0,0,0,0,0,0,0,0,0,0,0,0,0,0,0,0,0,0,0,0,0,0,0,0,0,0,0,0,0,0,2.5729,2.573,0,2.5779,2.578,2.578,2.5718,2.5715,2.5713,2.5711,2.5764,2.5768,2.5771,0,0,0,0,0,0,0,0,0,0,0,0,0,2.5578,2.5581,2.5729,2.573,2.573,2.5779,2.578,2.5781,2.5718,2.5715,2.5713,2.571,2.5763,2.5767,2.5771,0,0,0,0,0,0,0,0,0,0,0,0,0,2.5638,2.5582,2.5729,2.5705,2.5703,2.5779,2.578,2.5781,2.5719,2.5715,2.5712,2.5709,2.5762,2.5767,2.5772,2.5874,0,0,2.5788,2.5791,0,0,0,0,0,0,0,0,2.5634,2.5643,2.5708,2.5707,2.5705,2.5739,2.5746,2.5812,2.572,2.5713,2.5711,2.5707,2.5759,2.5764,2.5781,2.5877,2.5879,2.5789,2.5792,2.5794,2.5796,0,0,0,0,0,0,0,2.563,2.5641,2.5749,2.5709,2.5707,2.5691,2.5696,2.5758,2.5755,2.5713,2.5709,2.5716,2.5757,2.5776,2.5782,2.588,2.5789,2.5793,2.5797,2.5799,2.6058,2.6062,0,0,0,0,0,0,2.5629,2.5638,2.5747,2.575,2.566,2.5697,2.5702,2.5731,2.5754,2.5754,2.5718,2.5712,2.5769,2.5776,2.5783,2.5902,2.5794,2.5799,2.5802,2.6054,2.6059,2.6063,0,0,0,0,0,0,2.5626,2.5639,2.5745,2.5693,2.5705,2.5703,2.5737,2.5734,2.5753,2.5758,2.5757,2.5738,2.5766,2.5776,2.5851,2.5903,2.5802,2.5807,2.605,2.6056,2.6061,2.6141,0,0,0,0,0,0,2.5622,2.5639,2.5678,2.5694,2.5708,2.5813,2.574,2.5738,2.5762,2.5755,2.5776,2.5776,2.5764,2.5843,2.5856,2.5908,2.5811,2.6045,2.6053,2.6059,2.6134,2.6149,2.6162,0,0,0,0,0,2.5617,2.57,2.568,2.5694,2.5757,2.5816,2.5824,2.5808,2.5767,2.5806,2.5808,2.5776,2.5895,2.5852,2.5866,2.592,2.6042,2.6051,2.6059,2.6128,2.6146,2.6161,0,0,0,0,0,0,2.5691,2.5702,2.568,2.5771,2.5793,2.5805,2.5854,2.5828,2.5863,2.5854,2.5833,2.5838,2.5918,2.5927,2.5878,2.6018,2.5962,2.5973,2.601,2.6027,2.6041,2.6036,2.5815,0,0,0,0,0,2.5718,2.5765,2.5771,2.5851,2.5863,2.5857,2.5882,2.5867,2.5889,2.5898,2.5906,2.5929,2.5971,2.6,2.6039,2.6135,2.6138,2.6179,2.6193,2.6204,2.6214,2.6262,2.628,2.609,2.609,2.609,0,0,2.5774,2.5786,2.5817,2.5866,2.5881,2.5929,2.5865,2.592,2.5954,2.5907,2.5977,2.5984,2.6008,2.6093,2.6131,2.6103,2.6267,2.6215,2.6224,2.6228,2.6273,2.6291,2.6307,2.6096,2.6095,2.6094,0,0,2.5901,2.5915,2.5981,2.5997,2.602,2.6015,2.6031,2.6047,2.6049,2.6119,2.6083,2.6124,2.6199,2.6216,2.6235,2.6364,2.6335,2.6378,2.645,2.6497,2.6512,2.6525,2.6569,2.6585,2.6388,2.6388,2.6388,0,2.5968,2.6039,2.6019,2.6075,2.6096,2.6053,2.6119,2.6136,2.6171,2.6187,2.6155,2.6244,2.6258,2.6345,2.6376,2.6394,2.641,2.6375,2.6511,2.6524,2.6536,2.6578,2.6595,2.6393,2.6392,2.6392,2.6392,0,2.6119,2.6168,2.6219,2.6252,2.6279,2.634,2.6329,2.6359,2.6341,2.6339,2.6409,2.6424,2.6464,2.6483,2.6468,2.6568,2.6549,2.6515,2.6457,2.656,2.6598,2.6614,2.64,2.6398,2.6397,2.6396,0,0,2.6295,2.6314,2.6333,2.6345,2.6366,2.6404,2.6462,2.65,2.6525,2.655,2.6597,2.6659,2.6627,2.6648,2.6633,2.6675,2.6773,2.6635,2.6635,2.6658,2.6881,2.6905,2.6924,2.6754,2.6757,2.676,2.6878,0,2.6419,2.6519,2.6501,2.6597,2.6641,2.66,2.665,2.6668,2.6667,2.6704,2.6703,2.6746,2.6701,2.6713,2.6752,2.6753,2.6817,2.6744,2.6796,2.6798,2.679,2.6945,2.6972,2.7083,2.6893,2.6896,2.6898,0,2.6579,2.6607,2.6708,2.6718,2.6736,2.6781,2.6813,2.6849,2.6868,2.6864,2.6886,2.6863,2.6919,2.6861,2.6937,2.6888,2.6908,2.6911,2.6915,2.6918,2.6854,2.6951,2.7119,2.7135,2.6922,2.692,2.6918,0,2.6694,2.6758,2.6825,2.6838,2.6853,2.6885,2.6893,2.6908,2.6931,2.6959,2.6973,2.7007,2.7026,2.7053,2.7039,2.6999,2.7117,2.7059,2.7114,2.7115,2.714,2.7139,2.7312,2.7156,2.7156,2.7156,2.7155,0,2.6834,2.6896,2.6877,2.6918,2.6986,2.6964,2.7032,2.7035,2.7048,2.7089,2.7056,2.7094,2.7074,2.7111,2.7101,2.7164,2.7174,2.7171,2.7167,2.7173,2.7173,2.7185,2.7177,2.716,2.7159,2.7158,2.7158,0,2.6974,2.6964,2.7034,2.7041,2.7044,2.7094,2.71,2.7138,2.7134,2.7185,2.7196,2.7189,2.723,2.7219,2.7265,2.7258,2.7337,2.7324,2.733,2.7327,2.7382,2.7376,2.7568,2.7591,2.7422,2.7424,2.7425,0,2.7064,2.711,2.7122,2.7146,2.7155,2.7195,2.7217,2.7197,2.7222,2.7245,2.728,2.7318,2.7347,2.7415,2.7414,2.7448,2.7435,2.7499,2.744,2.7443,2.7433,2.743,2.7433,2.7511,2.7513,2.7515,2.7516,0,2.7223,2.7214,2.7247,2.7278,2.7305,2.7328,2.7349,2.7371,2.7352,2.7381,2.7422,2.7444,2.7489,2.7527,2.7557,2.7565,2.7537,2.7535,2.7549,2.7555,2.7555,2.7553,2.7361,2.753,2.7529,2.7528,2.7527,2.7527,2.7339,2.7377,2.739,2.7427,2.744,2.7459,2.7494,2.7492,2.7526,2.756,2.7546,2.7593,2.7608,2.7645,2.7657,2.7692,2.7667,2.7689,2.7694,2.7699,2.7705,2.7551,2.7698,2.7698,2.7697,2.7697,2.7696,0,2.7494,2.7499,2.7534,2.7562,2.759,2.7561,2.7581,2.7607,2.7648,2.7664,2.7692,2.7738,2.7773,2.7774,2.7807,2.7835,2.7823,2.7845,2.7842,2.7843,2.7726,2.7709,2.7854,2.7854,2.7854,2.7854,2.7853,2.7853,2.7578,2.764,2.7632,2.77,2.7705,2.7749,2.7763,2.778,2.7791,2.7844,2.7872,2.7872,2.7881,2.7914,2.7945,2.7944,2.7957,2.7983,2.7977,2.7868,2.7852,2.7837,2.7821,2.7986,2.7986,2.8091,2.8092,2.8092]},{"header":{"parameterUnit":"m.s-1","parameterCategory":1,"la1":30.2991,"la2":30.254,"lo1":-89.0895,"lo2":-89.0444,"dy":0.0017,"dx":0.0017,"nx":28,"ny":28,"refTime":"2023-07-21T09:00:00:Z","depth":0,"parameterNumber":3,"parameterNumberName":"V-component_of_WINDS"},"data":[0,0,0,0,0,0,0,0,0,0,0,0,0,0,0,0,0,0,0,0,0,0,0,0,0,0,0,0,0,0,0,0,0,0,0,0,0,0,0,0,0,0,0,0,0,0,0,0,0,0,0,0,0,0,0,0,0,0,5.9152,5.9152,0,5.9211,5.9211,5.9212,5.9143,5.914,5.9138,5.9135,5.919,5.9194,5.9197,0,0,0,0,0,0,0,0,0,0,0,0,0,5.8973,5.8977,5.9152,5.9153,5.9153,5.921,5.9211,5.9212,5.9143,5.914,5.9137,5.9134,5.9189,5.9193,5.9198,0,0,0,0,0,0,0,0,0,0,0,0,0,5.9043,5.8978,5.9152,5.9126,5.9124,5.921,5.9211,5.9212,5.9144,5.914,5.9136,5.9133,5.9187,5.9193,5.9198,5.9311,0,0,5.9216,5.9219,0,0,0,0,0,0,0,0,5.9039,5.905,5.9129,5.9128,5.9126,5.9166,5.9168,5.9245,5.9145,5.9136,5.9135,5.9131,5.9185,5.919,5.921,5.9313,5.9316,5.9217,5.922,5.9223,5.9224,0,0,0,0,0,0,0,5.9034,5.9047,5.9175,5.913,5.9129,5.9109,5.9115,5.9182,5.9181,5.9137,5.9132,5.914,5.9183,5.9204,5.921,5.9317,5.9216,5.9222,5.9225,5.9227,5.9512,5.9516,0,0,0,0,0,0,5.9033,5.9043,5.9173,5.9177,5.9073,5.9116,5.9122,5.9157,5.918,5.918,5.9143,5.9137,5.9196,5.9204,5.9212,5.9343,5.9223,5.9228,5.9231,5.9508,5.9513,5.9518,0,0,0,0,0,0,5.903,5.9046,5.9171,5.9109,5.9123,5.9123,5.9162,5.916,5.9181,5.9185,5.9184,5.9166,5.9194,5.9204,5.9286,5.9344,5.923,5.9236,5.9503,5.951,5.9515,5.9607,0,0,0,0,0,0,5.9025,5.9045,5.9089,5.911,5.9127,5.9246,5.9166,5.9164,5.9192,5.9184,5.9206,5.9206,5.9191,5.9278,5.9292,5.935,5.924,5.9498,5.9506,5.9513,5.9599,5.9616,5.963,0,0,0,0,0,5.9019,5.9112,5.9092,5.9108,5.9183,5.925,5.9259,5.9242,5.9197,5.924,5.9242,5.9205,5.9336,5.9287,5.9302,5.9363,5.9494,5.9504,5.9513,5.9592,5.9613,5.963,0,0,0,0,0,0,5.9096,5.9114,5.9092,5.9196,5.9222,5.9238,5.9292,5.9265,5.9303,5.9294,5.9269,5.9275,5.9362,5.9371,5.9316,5.9471,5.9407,5.942,5.9462,5.9482,5.9497,5.9492,5.9245,0,0,0,0,0,5.9126,5.9181,5.9193,5.9283,5.9298,5.9293,5.9322,5.9306,5.9332,5.9342,5.9351,5.9375,5.9421,5.9452,5.9495,5.96,5.9603,5.9649,5.9665,5.9677,5.9688,5.9742,5.9762,5.9548,5.9548,5.9548,0,0,5.9186,5.9203,5.9239,5.9299,5.9318,5.9373,5.9303,5.9365,5.9405,5.9351,5.9429,5.9436,5.9462,5.9556,5.9597,5.9565,5.9748,5.9689,5.9699,5.9703,5.9753,5.9773,5.9791,5.9554,5.9553,5.9552,0,0,5.9325,5.9345,5.9421,5.9441,5.947,5.9466,5.9485,5.9505,5.9508,5.9587,5.9547,5.9593,5.9674,5.9693,5.9714,5.9858,5.9824,5.9873,5.9953,6.0006,6.0023,6.0038,6.0087,6.0105,5.9884,5.9884,5.9884,0,5.9396,5.948,5.9462,5.9527,5.9553,5.9509,5.9584,5.9603,5.9645,5.9663,5.9627,5.9727,5.9741,5.9837,5.9872,5.9891,5.9909,5.987,6.0022,6.0037,6.005,6.0097,6.0116,5.989,5.9889,5.9888,5.9888,0,5.9565,5.9623,5.9681,5.9723,5.9756,5.9825,5.9816,5.9851,5.9832,5.9831,5.9911,5.9926,5.997,5.9992,5.9975,6.0086,6.0065,6.0027,5.9961,6.0077,6.012,6.0138,5.9898,5.9896,5.9894,5.9893,0,0,5.9753,5.9785,5.9806,5.9824,5.9853,5.9896,5.9963,6.0008,6.0037,6.0067,6.012,6.0189,6.0153,6.0176,6.016,6.0206,6.0317,6.0161,6.0162,6.0188,6.0437,6.0465,6.0486,6.0295,6.0299,6.0301,6.0434,0,5.9891,6.0008,5.9993,6.0104,6.0156,6.0114,6.0171,6.0194,6.0195,6.0237,6.0237,6.0286,6.0236,6.0249,6.0293,6.0294,6.0366,6.0285,6.0342,6.0344,6.0335,6.0509,6.0539,6.0664,6.0452,6.0454,6.0457,0,6.0066,6.0104,6.022,6.0239,6.026,6.0313,6.0351,6.0394,6.0417,6.0414,6.044,6.0415,6.0479,6.0414,6.05,6.0445,6.0467,6.0471,6.0475,6.0479,6.0406,6.0515,6.0704,6.0722,6.0483,6.0481,6.0479,0,6.0189,6.0269,6.0348,6.0365,6.039,6.0427,6.0438,6.0459,6.0486,6.0519,6.0536,6.0576,6.0597,6.0628,6.0614,6.0568,6.0701,6.0636,6.0698,6.0699,6.0727,6.0725,6.092,6.0745,6.0745,6.0744,6.0744,0,6.0343,6.0415,6.0403,6.0452,6.0531,6.0512,6.059,6.0596,6.0614,6.0661,6.0627,6.0672,6.0651,6.0694,6.0683,6.0754,6.0765,6.0762,6.0758,6.0764,6.0764,6.0777,6.0767,6.0749,6.0748,6.0747,6.0747,0,6.0493,6.0489,6.0572,6.0589,6.0594,6.0652,6.0665,6.0709,6.0707,6.0767,6.078,6.0776,6.0824,6.0814,6.0866,6.0859,6.0948,6.0934,6.094,6.0936,6.0998,6.0992,6.1207,6.1233,6.1043,6.1045,6.1047,0,6.0591,6.0645,6.0668,6.0698,6.0713,6.0762,6.0789,6.0773,6.0802,6.0833,6.0873,6.0918,6.0954,6.1032,6.1033,6.1072,6.1057,6.113,6.1063,6.1067,6.1055,6.1052,6.1056,6.1142,6.1145,6.1146,6.1148,0,6.0763,6.0758,6.08,6.0842,6.0876,6.0908,6.0935,6.0961,6.0946,6.0981,6.1031,6.1058,6.1112,6.1157,6.1193,6.1202,6.1172,6.1169,6.1185,6.1191,6.1192,6.119,6.0974,6.1164,6.1162,6.1161,6.116,6.116,6.0888,6.0934,6.0957,6.1005,6.1024,6.1051,6.1093,6.1096,6.1138,6.1181,6.1168,6.1224,6.1244,6.129,6.1304,6.1345,6.1318,6.1342,6.1347,6.1353,6.136,6.1187,6.1352,6.1351,6.1351,6.1351,6.135,0,6.1057,6.1069,6.1114,6.1154,6.1191,6.1162,6.119,6.1222,6.1273,6.1295,6.133,6.1386,6.1429,6.1433,6.1473,6.1505,6.1492,6.1516,6.1512,6.1514,6.1383,6.1364,6.1526,6.1526,6.1526,6.1525,6.1525,6.1525,6.1149,6.1224,6.1221,6.1305,6.1316,6.1372,6.1391,6.1414,6.1431,6.1496,6.1531,6.1535,6.1549,6.1589,6.1626,6.1626,6.1641,6.167,6.1664,6.1541,6.1524,6.1507,6.1489,6.1674,6.1674,6.1792,6.1793,6.1794]}]]